| time (UTC) | temp F | wind direction | speed MPH | gust MPH | rain 1hr in | rain 24hr in | rain mn in | humidity % | barometer mb |
| 20260504081815 | 47 | 96 | 0.0 | 0.0 | 0.00 | 0.00 | 0.00 | 89 | 1008.8 |
| 20260504081216 | 47 | 96 | 0.0 | 0.0 | 0.00 | 0.00 | 0.00 | 89 | 1008.8 |
| 20260504080626 | 47 | 96 | 0.0 | 0.0 | 0.00 | 0.00 | 0.00 | 89 | 1008.8 |
| 20260504045731 | 50 | 105 | 1.0 | 6.0 | 0.00 | 0.00 | 0.00 | 77 | 1010.8 |
| 20260504045152 | 50 | 105 | 1.0 | 6.0 | 0.00 | 0.00 | 0.00 | 77 | 1010.8 |
| 20260504044537 | 50 | 105 | 1.0 | 6.0 | 0.00 | 0.00 | 0.00 | 77 | 1010.8 |
| 20260504043915 | 49 | 97 | 0.0 | 0.0 | 0.00 | 0.00 | 0.00 | 82 | 1010.4 |
| 20260504042719 | 49 | 97 | 0.0 | 3.0 | 0.00 | 0.00 | 0.00 | 81 | 1010.4 |
| 20260504042142 | 49 | 97 | 0.0 | 3.0 | 0.00 | 0.00 | 0.00 | 81 | 1010.4 |
| 20260504041542 | 49 | 97 | 0.0 | 3.0 | 0.00 | 0.00 | 0.00 | 81 | 1010.4 |
| 20260504040949 | 49 | 97 | 0.0 | 0.0 | 0.00 | 0.00 | 0.00 | 82 | 1010.4 |
| 20260504035738 | 49 | 97 | 0.0 | 3.0 | 0.00 | 0.00 | 0.00 | 80 | 1010.4 |
| 20260504035142 | 49 | 97 | 0.0 | 3.0 | 0.00 | 0.00 | 0.00 | 80 | 1010.4 |
| 20260504033953 | 49 | 98 | 0.0 | 0.0 | 0.00 | 0.00 | 0.00 | 79 | 1010.4 |
| 20260504033342 | 49 | 98 | 0.0 | 0.0 | 0.00 | 0.00 | 0.00 | 79 | 1010.4 |
| 20260504032714 | 49 | 98 | 0.0 | 0.0 | 0.00 | 0.00 | 0.00 | 78 | 1010.4 |
| 20260504032125 | 49 | 98 | 0.0 | 0.0 | 0.00 | 0.00 | 0.00 | 78 | 1010.4 |
| 20260504031536 | 49 | 98 | 0.0 | 0.0 | 0.00 | 0.00 | 0.00 | 78 | 1010.4 |
| 20260504030952 | 50 | 98 | 0.0 | 0.0 | 0.00 | 0.00 | 0.00 | 76 | 1010.4 |
| 20260504030354 | 50 | 98 | 0.0 | 0.0 | 0.00 | 0.00 | 0.00 | 76 | 1010.4 |
| 20260504025115 | 50 | 94 | 3.0 | 5.0 | 0.00 | 0.00 | 0.00 | 75 | 1010.4 |
| 20260504024555 | 50 | 94 | 3.0 | 5.0 | 0.00 | 0.00 | 0.00 | 75 | 1010.4 |
| 20260504023317 | 50 | 117 | 0.0 | 0.0 | 0.00 | 0.00 | 0.00 | 73 | 1010.4 |
| 20260504022747 | 51 | 117 | 0.0 | 0.0 | 0.00 | 0.00 | 0.00 | 73 | 1010.4 |
| 20260504021538 | 51 | 117 | 0.0 | 0.0 | 0.00 | 0.00 | 0.00 | 73 | 1010.4 |
| 20260504020353 | 52 | 117 | 0.0 | 0.0 | 0.00 | 0.00 | 0.00 | 69 | 1010.4 |
| 20260504015734 | 53 | 117 | 0.0 | 0.0 | 0.00 | 0.00 | 0.00 | 65 | 1010.1 |
| 20260504015121 | 53 | 117 | 0.0 | 0.0 | 0.00 | 0.00 | 0.00 | 65 | 1010.1 |
| 20260504014530 | 53 | 117 | 0.0 | 0.0 | 0.00 | 0.00 | 0.00 | 65 | 1010.1 |
| 20260504013925 | 53 | 115 | 0.0 | 2.0 | 0.00 | 0.00 | 0.00 | 66 | 1010.1 |
| 20260504013334 | 53 | 115 | 0.0 | 2.0 | 0.00 | 0.00 | 0.00 | 66 | 1010.1 |
| 20260504012735 | 54 | 104 | 1.0 | 5.0 | 0.00 | 0.00 | 0.00 | 62 | 1010.4 |
| 20260504011522 | 55 | 106 | 0.0 | 0.0 | 0.00 | 0.00 | 0.00 | 65 | 1010.4 |
| 20260504010939 | 55 | 106 | 0.0 | 0.0 | 0.00 | 0.00 | 0.00 | 65 | 1010.4 |
| 20260504010354 | 55 | 106 | 0.0 | 0.0 | 0.00 | 0.00 | 0.00 | 65 | 1010.4 |
| 20260504005728 | 56 | 106 | 0.0 | 0.0 | 0.00 | 0.00 | 0.00 | 57 | 1010.4 |
| 20260504004531 | 56 | 106 | 0.0 | 0.0 | 0.00 | 0.00 | 0.00 | 56 | 1010.4 |
| 20260504003953 | 56 | 106 | 0.0 | 0.0 | 0.00 | 0.00 | 0.00 | 56 | 1010.4 |
| 20260504003337 | 56 | 106 | 0.0 | 0.0 | 0.00 | 0.00 | 0.00 | 56 | 1010.4 |
| 20260504002742 | 57 | 106 | 0.0 | 0.0 | 0.00 | 0.00 | 0.00 | 51 | 1010.4 |
| 20260504002127 | 57 | 106 | 0.0 | 0.0 | 0.00 | 0.00 | 0.00 | 51 | 1010.4 |
| 20260504001533 | 58 | 106 | 0.0 | 1.0 | 0.00 | 0.00 | 0.00 | 50 | 1010.4 |
| 20260504000928 | 58 | 106 | 0.0 | 1.0 | 0.00 | 0.00 | 0.00 | 50 | 1010.4 |
| 20260504000328 | 58 | 106 | 0.0 | 1.0 | 0.00 | 0.00 | 0.00 | 50 | 1010.4 |
| 20260503234521 | 61 | 75 | 0.0 | 2.0 | 0.00 | 0.00 | 0.00 | 40 | 1010.4 |
| 20260503231524 | 61 | 200 | 0.0 | 1.0 | 0.00 | 0.00 | 0.00 | 40 | 1011.1 |
| 20260503230953 | 61 | 200 | 0.0 | 1.0 | 0.00 | 0.00 | 0.00 | 40 | 1011.1 |
| 20260503230351 | 61 | 200 | 0.0 | 1.0 | 0.00 | 0.00 | 0.00 | 40 | 1011.1 |
| 20260503225724 | 62 | 190 | 0.0 | 3.0 | 0.00 | 0.00 | 0.00 | 40 | 1011.1 |
| 20260503225148 | 62 | 190 | 0.0 | 3.0 | 0.00 | 0.00 | 0.00 | 40 | 1011.1 |
| 20260503224527 | 62 | 140 | 0.0 | 6.0 | 0.00 | 0.00 | 0.00 | 37 | 1011.5 |
| 20260503223912 | 62 | 140 | 0.0 | 6.0 | 0.00 | 0.00 | 0.00 | 37 | 1011.5 |
| 20260503223351 | 62 | 140 | 0.0 | 6.0 | 0.00 | 0.00 | 0.00 | 37 | 1011.5 |
| 20260503222727 | 62 | 107 | 3.0 | 9.0 | 0.00 | 0.00 | 0.00 | 38 | 1011.5 |
| 20260503222144 | 62 | 107 | 3.0 | 9.0 | 0.00 | 0.00 | 0.00 | 38 | 1011.5 |
| 20260503221527 | 62 | 155 | 2.0 | 12.0 | 0.00 | 0.00 | 0.00 | 37 | 1011.5 |
| 20260503220909 | 62 | 155 | 2.0 | 12.0 | 0.00 | 0.00 | 0.00 | 37 | 1011.5 |
| 20260503220333 | 62 | 155 | 2.0 | 12.0 | 0.00 | 0.00 | 0.00 | 37 | 1011.5 |
| 20260503215723 | 62 | 76 | 4.0 | 10.0 | 0.00 | 0.00 | 0.00 | 37 | 1011.5 |
| 20260503215141 | 62 | 76 | 4.0 | 10.0 | 0.00 | 0.00 | 0.00 | 37 | 1011.5 |
| 20260503214519 | 63 | 252 | 3.0 | 7.0 | 0.00 | 0.00 | 0.00 | 39 | 1011.5 |
| 20260503213944 | 63 | 252 | 3.0 | 7.0 | 0.00 | 0.00 | 0.00 | 39 | 1011.5 |
| 20260503213328 | 63 | 252 | 3.0 | 7.0 | 0.00 | 0.00 | 0.00 | 39 | 1011.5 |
| 20260503212440 | 62 | 174 | 0.0 | 13.0 | 0.00 | 0.00 | 0.00 | 36 | 1011.5 |
| 20260503211827 | 62 | 174 | 0.0 | 13.0 | 0.00 | 0.00 | 0.00 | 36 | 1011.5 |
| 20260503211227 | 62 | 91 | 3.0 | 12.0 | 0.00 | 0.00 | 0.00 | 39 | 1011.5 |
| 20260503210647 | 62 | 91 | 3.0 | 12.0 | 0.00 | 0.00 | 0.00 | 39 | 1011.5 |
| 20260503210017 | 62 | 86 | 2.0 | 11.0 | 0.00 | 0.00 | 0.00 | 41 | 1011.1 |
| 20260503205430 | 62 | 86 | 2.0 | 11.0 | 0.00 | 0.00 | 0.00 | 41 | 1011.1 |
| 20260503203914 | 61 | 69 | 3.0 | 9.0 | 0.00 | 0.00 | 0.00 | 41 | 1011.5 |
| 20260503203343 | 61 | 69 | 3.0 | 9.0 | 0.00 | 0.00 | 0.00 | 41 | 1011.5 |
| 20260503202733 | 61 | 130 | 2.0 | 9.0 | 0.00 | 0.00 | 0.00 | 41 | 1012.1 |
| 20260503202127 | 61 | 130 | 2.0 | 9.0 | 0.00 | 0.00 | 0.00 | 41 | 1012.1 |
| 20260503201509 | 61 | 165 | 2.0 | 11.0 | 0.00 | 0.00 | 0.00 | 42 | 1012.1 |
| 20260503200953 | 61 | 165 | 2.0 | 11.0 | 0.00 | 0.00 | 0.00 | 42 | 1012.1 |
| 20260503200321 | 61 | 165 | 2.0 | 11.0 | 0.00 | 0.00 | 0.00 | 42 | 1012.1 |
| 20260503195119 | 61 | 75 | 9.0 | 11.0 | 0.00 | 0.00 | 0.00 | 41 | 1012.5 |
| 20260503194527 | 60 | 146 | 4.0 | 8.0 | 0.00 | 0.00 | 0.00 | 40 | 1013.2 |
| 20260503193935 | 60 | 146 | 4.0 | 8.0 | 0.00 | 0.00 | 0.00 | 40 | 1013.2 |
| 20260503193341 | 60 | 146 | 4.0 | 8.0 | 0.00 | 0.00 | 0.00 | 40 | 1013.2 |
| 20260503192753 | 60 | 179 | 0.0 | 12.0 | 0.00 | 0.00 | 0.00 | 39 | 1013.2 |
| 20260503192120 | 60 | 179 | 0.0 | 12.0 | 0.00 | 0.00 | 0.00 | 39 | 1013.2 |
| 20260503190909 | 59 | 157 | 0.0 | 15.0 | 0.00 | 0.00 | 0.00 | 40 | 1013.5 |
| 20260503185750 | 60 | 195 | 1.0 | 16.0 | 0.00 | 0.00 | 0.00 | 39 | 1013.8 |
| 20260503185141 | 60 | 195 | 1.0 | 16.0 | 0.00 | 0.00 | 0.00 | 39 | 1013.8 |
| 20260503184540 | 60 | 195 | 1.0 | 16.0 | 0.00 | 0.00 | 0.00 | 39 | 1013.8 |
| 20260503183353 | 60 | 161 | 3.0 | 12.0 | 0.00 | 0.00 | 0.00 | 41 | 1013.8 |
| 20260503182749 | 58 | 296 | 4.0 | 12.0 | 0.00 | 0.00 | 0.00 | 42 | 1013.8 |
| 20260503182146 | 58 | 296 | 4.0 | 12.0 | 0.00 | 0.00 | 0.00 | 42 | 1013.8 |
| 20260503181545 | 58 | 296 | 4.0 | 12.0 | 0.00 | 0.00 | 0.00 | 42 | 1013.8 |
| 20260503180335 | 57 | 240 | 2.0 | 10.0 | 0.00 | 0.00 | 0.00 | 44 | 1014.2 |
| 20260503175731 | 57 | 200 | 1.0 | 12.0 | 0.00 | 0.00 | 0.00 | 44 | 1014.5 |
| 20260503175123 | 57 | 200 | 1.0 | 12.0 | 0.00 | 0.00 | 0.00 | 44 | 1014.5 |
| 20260503174550 | 57 | 200 | 1.0 | 12.0 | 0.00 | 0.00 | 0.00 | 44 | 1014.5 |
| 20260503173918 | 57 | 151 | 3.0 | 13.0 | 0.00 | 0.00 | 0.00 | 44 | 1014.5 |
| 20260503173309 | 57 | 151 | 3.0 | 13.0 | 0.00 | 0.00 | 0.00 | 44 | 1014.5 |
| 20260503172730 | 58 | 291 | 3.0 | 8.0 | 0.00 | 0.00 | 0.00 | 49 | 1014.9 |
| 20260503172124 | 58 | 291 | 3.0 | 8.0 | 0.00 | 0.00 | 0.00 | 49 | 1014.9 |
| 20260503171538 | 58 | 291 | 3.0 | 8.0 | 0.00 | 0.00 | 0.00 | 49 | 1014.9 |
| 20260503170935 | 57 | 84 | 5.0 | 10.0 | 0.00 | 0.00 | 0.00 | 45 | 1014.9 |
| 20260503170347 | 57 | 84 | 5.0 | 10.0 | 0.00 | 0.00 | 0.00 | 45 | 1014.9 |
| 20260503150929 | 51 | 211 | 1.0 | 11.0 | 0.00 | 0.00 | 0.00 | 51 | 1015.9 |
| 20260503150317 | 51 | 211 | 1.0 | 11.0 | 0.00 | 0.00 | 0.00 | 51 | 1015.9 |
| 20260503130953 | 39 | 238 | 0.0 | 0.0 | 0.00 | 0.00 | 0.00 | 99 | 1015.9 |
| 20260503110645 | 30 | 128 | 0.0 | 0.0 | 0.00 | 0.00 | 0.00 | 97 | 1014.9 |